TimeEDT,TemperatureF,Dew PointF,Humidity,Sea Level PressureIn,VisibilityMPH,Wind Direction,Wind SpeedMPH,Gust SpeedMPH,PrecipitationIn,Events,Conditions,WindDirDegrees,DateUTC
12:54 AM,57.9,55.9,93,29.76,3.0,NNW,11.5,-,N/A,,Overcast,330,2011-10-02 04:54:00
12:56 AM,57.2,55.4,94,29.76,3.0,NW,9.2,-,N/A,,Overcast,320,2011-10-02 04:56:00
1:54 AM,60.1,59.0,96,29.78,3.0,NNE,11.5,-,N/A,,Overcast,20,2011-10-02 05:54:00
2:54 AM,61.0,60.1,97,29.78,3.0,NNE,12.7,-,N/A,,Overcast,30,2011-10-02 06:54:00
2:58 AM,60.8,60.8,100,29.77,1.0,North,12.7,-,N/A,,Overcast,10,2011-10-02 06:58:00
3:54 AM,61.0,60.1,97,29.78,1.0,NNE,11.5,-,0.00,,Light Drizzle,30,2011-10-02 07:54:00
4:54 AM,61.0,61.0,100,29.80,1.0,NNE,10.4,-,0.00,,Overcast,30,2011-10-02 08:54:00
5:09 AM,60.8,60.8,100,29.80,0.5,NNE,9.2,-,N/A,,Overcast,30,2011-10-02 09:09:00
5:54 AM,63.0,62.1,97,29.81,0.5,ENE,6.9,-,N/A,,Overcast,70,2011-10-02 09:54:00
6:38 AM,60.8,60.8,100,29.81,2.0,East,16.1,-,0.00,,Mostly Cloudy,90,2011-10-02 10:38:00
6:46 AM,60.8,57.2,88,29.82,9.0,East,11.5,-,0.00,,Overcast,100,2011-10-02 10:46:00
6:51 AM,60.8,59.0,94,29.82,9.0,East,11.5,-,N/A,,Mostly Cloudy,100,2011-10-02 10:51:00
6:54 AM,61.0,59.0,93,29.82,10.0,East,10.4,-,0.00,Rain,Light Rain,100,2011-10-02 10:54:00
7:54 AM,61.0,59.0,93,29.85,10.0,ENE,8.1,-,0.00,,Mostly Cloudy,60,2011-10-02 11:54:00
8:30 AM,62.6,59.0,88,29.84,10.0,NE,13.8,-,N/A,,Mostly Cloudy,40,2011-10-02 12:30:00
8:44 AM,60.8,59.0,94,29.83,10.0,NE,12.7,-,N/A,,Mostly Cloudy,50,2011-10-02 12:44:00
8:54 AM,63.0,60.1,90,29.83,10.0,NE,11.5,-,N/A,,Mostly Cloudy,40,2011-10-02 12:54:00
9:24 AM,62.6,59.0,88,29.84,10.0,NE,10.4,-,N/A,,Overcast,40,2011-10-02 13:24:00
9:54 AM,61.0,59.0,93,29.83,10.0,NNE,18.4,-,N/A,,Overcast,30,2011-10-02 13:54:00
10:54 AM,62.1,57.9,86,29.84,10.0,NE,18.4,-,N/A,,Overcast,40,2011-10-02 14:54:00
11:09 AM,62.6,57.2,82,29.84,10.0,NNE,15.0,-,N/A,,Overcast,30,2011-10-02 15:09:00
11:54 AM,64.0,57.0,78,29.84,10.0,NE,12.7,-,N/A,,Overcast,40,2011-10-02 15:54:00
12:13 PM,64.4,57.2,77,29.84,10.0,NNE,13.8,-,N/A,,Overcast,20,2011-10-02 16:13:00
12:54 PM,64.0,55.9,75,29.84,10.0,NNE,10.4,-,N/A,,Overcast,20,2011-10-02 16:54:00
1:54 PM,64.9,55.9,73,29.80,10.0,NNE,12.7,-,N/A,,Overcast,20,2011-10-02 17:54:00
2:54 PM,64.0,55.9,75,29.81,10.0,NNW,9.2,-,N/A,,Overcast,330,2011-10-02 18:54:00
3:54 PM,63.0,57.0,81,29.82,7.0,NNW,8.1,-,N/A,,Overcast,340,2011-10-02 19:54:00
4:54 PM,62.1,57.9,86,29.83,3.0,WNW,9.2,-,N/A,,Overcast,300,2011-10-02 20:54:00
5:37 PM,62.6,57.2,82,29.84,7.0,WNW,8.1,-,N/A,,Overcast,300,2011-10-02 21:37:00
5:54 PM,63.0,57.0,81,29.84,7.0,NNW,8.1,-,N/A,,Overcast,330,2011-10-02 21:54:00
6:35 PM,62.6,57.2,82,29.85,10.0,NNW,6.9,-,N/A,,Scattered Clouds,330,2011-10-02 22:35:00
6:54 PM,62.1,57.0,84,29.86,10.0,NW,8.1,-,N/A,,Mostly Cloudy,320,2011-10-02 22:54:00
7:30 PM,60.8,57.2,88,29.87,10.0,WNW,6.9,-,N/A,,Mostly Cloudy,290,2011-10-02 23:30:00
7:54 PM,62.1,57.0,84,29.87,10.0,West,5.8,-,N/A,,Mostly Cloudy,280,2011-10-02 23:54:00
8:54 PM,61.0,55.9,83,29.88,10.0,WNW,5.8,-,N/A,,Overcast,300,2011-10-03 00:54:00
9:54 PM,62.1,57.0,84,29.90,10.0,NNW,5.8,-,N/A,,Overcast,340,2011-10-03 01:54:00
10:54 PM,61.0,57.0,87,29.91,10.0,Calm,Calm,-,N/A,,Overcast,0,2011-10-03 02:54:00
11:54 PM,61.0,57.0,87,29.92,10.0,Calm,Calm,-,N/A,,Overcast,0,2011-10-03 03:54:00